Terminal Aerodrome Forecast
Issued by NWS Dodge City, KS

Home | Current Version | Previous Version | Text Only | Print | Product List | Glossary On
Versions: 1 2 3 4 5 6 7 8 9 10 11 12 13 14 15 16 17 18 19 20 21 22 23 24 25 26 27 28 29 30 31 32 33 34 35 36 37 38 39 40 41 42
000
FTUS43 KDDC 220524
TAFDDC
TAF
KDDC 220524Z 2206/2306 19008KT 5SM BR OVC003
     FM221000 31013G20KT P6SM SCT100
     FM221600 32022G29KT P6SM BKN040
     FM230000 31010KT P6SM SCT100=

USA.gov is the U.S. government's official web portal to all federal, state and local government web resources and services.